Cosmos 1634 Rocket - Orbit

View from above orbital plane
View from above orbital plane
View from above satellite
View from above satellite

Ground track
Ground track

The orbit data is extracted from the following two-line orbital elements,

1 15598U 85022B   13140.54027171 -.00000009  00000-0 -24229-4 0  4237
2 15598 082.9359 133.5163 0020864 313.9743 194.3272 13.76450492415670
Epoch (UTC): 20 May 2013 12:57:59
Eccentricity: 0.0020864
inclination: 82.9359°
perigee height: 961 km
apogee height: 992 km
right ascension of ascending node: 133.5163°
argument of perigee: 313.9743°
revolutions per day: 13.76450492
mean anomaly at epoch: 194.3272°
orbit number at epoch: 41567

The dashed part of the orbit path shows where the satellite is in the earth's shadow,  

Developed and maintained by Chris Peat, Heavens-Above GmbH. Please read the updated FAQ before sending e-mail. Imprint. DLR